{"data":{"norad_id":56474,"intl_designator":"2023-064AC","name":"STARLINK-5524","alt_names":[],"object_type":"PAYLOAD","status":"ACTIVE","operator":null,"country":"US","launch_date":"2023-05-10","launch_site_code":"AFWTR","launch_vehicle":null,"mission":null,"orbit_class":"UNKNOWN","rcs_meters":null,"size_class":null,"mass_kg":null,"dimensions":null,"purposes":["comms"],"wikipedia_slug":null,"has_3d_model":false,"image_url":null,"decayed_at":null,"tle_current":{"epoch":"2026-05-25T02:54:03.362400Z","epoch_age_seconds":61131,"freshness":"FRESH","line1":"1 56474U 23064AC  26145.12087225 -.00000222  00000+0 -10820-4 0  9998","line2":"2 56474  69.9989 291.9168 0003002 268.8117  91.2698 14.98330433167188","mean_motion":14.98330433,"eccentricity":0.0003002,"inclination_deg":69.9989,"raan_deg":291.9168,"arg_perigee_deg":268.8117,"mean_anomaly_deg":91.2698,"bstar":-1.082e-5,"rev_number":16718,"period_min":96.106971351893,"perigee_km":569.96810442407,"apogee_km":574.14099943185,"semimajor_km":6950.191551928,"source":"CELESTRAK","updated_at":"2026-05-25T13:38:18.071713Z"}}}